This is the latest recevied weather packets stored in our database for station/object K7SPS-10. If no packets are shown the sender has not sent any weather packets the latest 10 day(s).
| Time | Temp. | Humidity | Pressure | Rain* | Wind** | Luminosity | Snow |
|---|---|---|---|---|---|---|---|
| 1778321175 | 12.78° C | 53% | 1020 hPa | 0 mm | - | 0 W/m² | - |
| 1778320872 | 12.78° C | 53% | 1019.9 hPa | 0 mm | - | 0 W/m² | - |
| 1778320568 | 12.78° C | 52% | 1019.9 hPa | 0 mm | - | 0 W/m² | - |
| 1778320266 | 12.78° C | 52% | 1019.8 hPa | 0 mm | - | 0 W/m² | - |
| 1778319962 | 12.22° C | 52% | 1019.6 hPa | 0 mm | - | 0 W/m² | - |
| 1778319659 | 12.22° C | 54% | 1019.8 hPa | 0 mm | - | 0 W/m² | - |
| 1778319358 | 12.22° C | 53% | 1019.8 hPa | 0 mm | - | 0 W/m² | - |
| 1778319055 | 12.22° C | 53% | 1019.9 hPa | 0 mm | - | 0 W/m² | - |
| 1778318752 | 12.22° C | 52% | 1019.6 hPa | 0 mm | - | 0 W/m² | - |
| 1778318451 | 12.78° C | 51% | 1019.4 hPa | 0 mm | - | 0 W/m² | - |
| 1778318148 | 13.33° C | 49% | 1019.5 hPa | 0 mm | - | 0 W/m² | - |
| 1778317845 | 13.33° C | 49% | 1019.7 hPa | 0 mm | - | 0 W/m² | - |
| 1778317542 | 13.33° C | 48% | 1019.5 hPa | 0 mm | - | 0 W/m² | - |
| 1778317240 | 13.89° C | 46% | 1019.6 hPa | 0 mm | - | 0 W/m² | - |
| 1778316937 | 14.44° C | 44% | 1019.7 hPa | 0 mm | - | 0 W/m² | - |
| 1778316633 | 14.44° C | 44% | 1019.6 hPa | 0 mm | - | 0 W/m² | - |
| 1778316330 | 13.89° C | 45% | 1019.4 hPa | 0 mm | - | 0 W/m² | - |
| 1778316027 | 14.44° C | 44% | 1019.6 hPa | 0 mm | - | 0 W/m² | - |
| 1778315724 | 13.89° C | 44% | 1019.7 hPa | 0 mm | - | 0 W/m² | - |
| 1778315421 | 13.89° C | 46% | 1019.6 hPa | 0 mm | - | 0 W/m² | - |
| 1778315118 | 13.89° C | 46% | 1019.7 hPa | 0 mm | - | 0 W/m² | - |
| 1778314815 | 13.89° C | 45% | 1019.5 hPa | 0 mm | - | 0 W/m² | - |
| 1778314513 | 14.44° C | 43% | 1019.6 hPa | 0 mm | - | 0 W/m² | - |
| 1778314209 | 15° C | 41% | 1019.5 hPa | 0 mm | - | 0 W/m² | - |
| 1778313907 | 15° C | 42% | 1019.5 hPa | 0 mm | - | 0 W/m² | - |
* Rain latest hour (hover to see other rain measurements)
** Current wind speed in m/s (hover to see current wind gust speed)